DELTA 1 DEB, 14563

Orbit data source: Space-Track

DELTA 1 DEB, 14563 is space debris in LEO originally from a launch on Thu, 14 Jul 1977 UTC launched from the Air Force Eastern Test Range (AFETR). Debris objects in space refer to the collection of defunct objects orbiting the Earth. Examples of debris include non-operational satellites, rocket bodies, and fragments generated from explosions, collisions, or faulty payload assembly.

Loading next visibility...
Identifier
14563, 1977-065FR
Orbit
LEO
Country
Flag of USUS
Related business
Manufacturer
Unknown
Mission
Spacecraft
Bus & Motor
Unknown
Mass
Unknown
Launch date (UTC)
1977-07-14 (49 years ago)
Launch vehicle
Unknown
Launch site
Air Force Eastern Test Range (AFETR)
Object type
Payload
Rocket body
Debris
Shape & HBR
Unknown shape, 0.1 m
Radar Cross Section
Medium (>0.1 m² and <1 m²)

Expand to show TLE details & history
Last TLE update: 1 day ago

TLE from 1 day ago
0 DELTA 1 DEB
1 14563U 77065FR  26262.16375355  .00001129  00000-0  14210-3 0  9991
2 14563  29.1726  80.1375 0424459 355.7316   3.9716 14.29324964800974
Epoch: 2026-09-19T03:55Z
TLE epoch observation values (Epoch: 2026-09-19T03:55:48.306Z)
Latitude
-0.00005°
Longitude
23.10991°
Altitude
488.831 km
Speed
7.782 km/s
True Right ascension
05h 20m 32s
True Declination
0° 00' 00"
Sunlit
Object was in daylight at epoch
Visualization orbit readout
Latitude
Unknown
Longitude
Unknown
Altitude
Unknown
Speed
Unknown
Apparent Right ascension
Unknown
Apparent Declination
Unknown
Sunlit
N/A
Visualization observer readout
Local Sidereal Time
03:42:02
Azimuth
Unknown
Elevation
Unknown
Doppler factor
Unknown
Orbital elements
Apogee altitude
1,102.553 km
Perigee altitude
493.361 km
Semi-major axis
7,176.094 km
Eccentricity
0.04245
Inclination
29.1726°
RAAN
80.1375°
Arg. of periapsis
355.7316°
True anomaly
4.32727°
Mean anomaly
3.9716°
Eccentric anomaly
4.14749°
Mean motion
3.57035 °/min
Orbital period
100.83 mins
BSTAR
0.0001421
Loading maneuver chart data...
Computing Atmospheric mass density...
Loading historical data...
Loading historical data...
Loading historical data...
Loading historical data...
Loading historical data...
Loading historical data...
Loading historical data...

Documentation

Showing up to 5 results
|